Regional Weather Roundup
Issued by NWS

Home | Current Version | Previous Version | Text Only | Print | Product List | Glossary On
Versions: 1 2 3 4 5 6 7 8 9 10 11 12 13 14 15 16 17 18 19 20 21 22 23 24 25 26 27 28 29 30 31 32 33 34 35 36 37 38 39 40 41 42 43 44 45 46 47 48 49 50
000
ASUS44 KLIX 202113
RWRLA
LOUISIANA WEATHER ROUNDUP
NATIONAL WEATHER SERVICE NEW ORLEANS LA
300 PM CST MON FEB 20 2017

NOTE: "FAIR" INDICATES FEW OR NO CLOUDS BELOW 12,000 FEET WITH NO
      SIGNIFICANT WEATHER AND/OR OBSTRUCTIONS TO VISIBILITY.
      SKY/WX - SKY CONDITION AND SIGNIFICANT WEATHER.
      TMP - AIR TEMPERATURE.    DP   - DEWPOINT TEMPERATURE.
      RH  - RELATIVE HUMIDITY.  PRES - PRESSURE.
      HX  - HEAT INDEX.         WCI  - WIND CHILL INDEX.

*  THESE STATIONS ARE NOT NWS OR FAA STATIONS AND ARE NOT UNDER
   NWS QUALITY CONTROL.

LAZ040-048-061>063-065-066-069-202200-
SOUTHEAST LOUISIANA

CITY           SKY/WX    TMP DP  RH WIND       PRES   REMARKS
N.O. AUDUBON   NOT AVBL
N.O. INTL ARPT CLOUDY    77  68  73 S14       29.99F
N.O. LAKEFRONT CLOUDY    74  66  76 E12       30.01S
N.O. DOWNTOWN*   N/A     76  67  73 VRB7      30.01F
RESERVE*       CLOUDY    79  69  72 S12       29.99S
SLIDELL        MOSUNNY   77  62  59 SE10      30.01F
BATON ROUGE    PTSUNNY   80  66  62 SE13      29.95F
BOOTHVILLE     PTSUNNY   75  70  83 SE8       30.02F
BELLE CHASSE   CLOUDY    75  68  78 SE13      30.00F
BOGALUSA*      CLOUDY    80  55  40 S10G17    30.03F
GALLIANO*      CLOUDY    75  67  77 SE10G16   30.00S
NEW ROADS*     MOCLDY    79  66  64 SE12      29.94F
GONZALES*      FAIR      79  67  66 S10G17    29.96F
HAMMOND*       PTSUNNY   77  63  61 SE13G20   30.00S
HOUMA*         CLOUDY    75  70  83 SE13G20   29.99F
PORT FOURCHON* PTCLDY    73  68  83 E12       29.99S

$$

LAZ041-044-053-054-202200-
SOUTHWEST LOUISIANA

CITY           SKY/WX    TMP DP  RH WIND       PRES   REMARKS
LAKE CHARLES   HVY RAIN  61  61 100 NW21G29   29.94S FOG
LAFAYETTE      CLOUDY    76  70  82 SE10G23   29.92F
PATTERSON      LGT RAIN  74  70  87 SE15      29.97F
SALT POINT       N/A     72  68  87 SE13G20   29.95S
NEW IBERIA     LGT RAIN  74  68  81 SE18G28   29.93F
CHENAULT AIRPK RAIN      59  59 100 NW20G31   29.94  FOG

$$

LAZ027-028-202200-
CENTRAL LOUISIANA

CITY           SKY/WX    TMP DP  RH WIND       PRES   REMARKS
FORT POLK      RAIN      61  59  94 NW17G35   29.96R VSB 3/4
ALEXANDRIA INT CLOUDY    76  65  68 S12       29.87F
ALEXANDRIA     CLOUDY    77  67  71 SE8       29.89F

$$

LAZ001-002-202200-
NORTHWEST LOUISIANA

CITY           SKY/WX    TMP DP  RH WIND       PRES   REMARKS
SHREVEPORT     LGT RAIN  64  61  90 W8        29.96R
BARKSDALE AFB  LGT RAIN  64  59  82 W8        29.96R
DTN SHREVEPORT LGT RAIN  64  60  87 W8        29.95S

$$

LAZ014-016-202200-
NORTHEAST LOUISIANA

CITY           SKY/WX    TMP DP  RH WIND       PRES   REMARKS
MONROE         PTSUNNY   80  62  54 SE13G18   29.92F
TALLULAH       PTSUNNY   77  61  57 S15       29.97F

$$




USA.gov is the U.S. government's official web portal to all federal, state and local government web resources and services.